STARLINK-4290, 53006

Orbit data source: Space-Track

STARLINK-4290, 53006 is a payload satellite owned by SpaceX/Seattle (US) in LEO that was launched on Thu, 07 Jul 2022 UTC via an FALCON 9 launch vehicle from the Air Force Eastern Test Range (AFETR). Payload-class satellites include a variety of spacecraft equipped with specific instruments for various scientific and technological missions. These include communications satellites like Starlink; space stations such as the ISS; scientific satellites like the Hubble; Earth observation satellites from companies like Planet Labs, Umbra, and HawkEye 360; GPS; miniature CubeSats for education and research; and military/defense satellites.

Loading next visibility...
Identifier
53006, 2022-076W
Orbit
LEO
Country
Flag of USUS
Related business
Manufacturer
SpaceX/Seattle
Mission
Operational Commercial Communications
Bus & Motor
STARLINK, Unknown motor
Mass
297 kg wet, ~275 kg dry
Launch date (UTC)
2022-07-07 (3 years ago)
Launch vehicle
FALCON 9
Launch site
Air Force Eastern Test Range (AFETR)
Object type
Payload
Rocket body
Debris
Shape & HBR
Box + 1 Pan, 10.1 m
Radar Cross Section
13.562 m², Large (>1 m²)

Expand to show TLE details & history
Last TLE update: 14 hours ago

TLE from 14 hours ago
0 STARLINK-4290
1 53006U 22076W   25340.86497133  .00000548  00000-0  52545-4 0  9998
2 53006  53.2177 150.8249 0001405  93.0407 267.0746 15.08837728188832
Epoch: 2025-12-06T20:45Z
TLE epoch observation values (Epoch: 2025-12-06T20:45:33.522Z)
Latitude
-0.00004°
Longitude
123.54861°
Altitude
540.698 km
Speed
7.593 km/s
True Right ascension
10h 03m 17s
True Declination
0° 00' 00"
Sunlit
Object was in daylight at epoch
Visualization orbit readout
Latitude
Unknown
Longitude
Unknown
Altitude
Unknown
Speed
Unknown
Apparent Right ascension
Unknown
Apparent Declination
Unknown
Sunlit
N/A
Visualization observer readout
Local Sidereal Time
08:38:06
Azimuth
Unknown
Elevation
Unknown
Doppler factor
Unknown
Orbital elements
Apogee altitude
540.967 km
Perigee altitude
539.023 km
Semi-major axis
6,918.132 km
Eccentricity
0.00014
Inclination
53.2177°
RAAN
150.8249°
Arg. of periapsis
93.0407°
True anomaly
267.05852°
Mean anomaly
267.0746°
Eccentric anomaly
267.06656°
Mean motion
3.7719 °/min
Orbital period
95.44 mins
BSTAR
0.000052545
Loading maneuver chart data...
Computing Atmospheric mass density...
Loading historical data...
Loading historical data...
Loading historical data...
Loading historical data...
Loading historical data...
Loading historical data...
Loading historical data...

Documentation

Showing up to 5 results
|